Location: Observatory
(52.1446°N, 0.4624°W)
Time: 03:54:11
(UTC+00:00)

ISS - Visible Passes

Search period start: 26 February 2018 00:00
Search period end: 08 March 2018 00:00
Orbit: 403 x 406 km, 51.6° (Epoch: 26 February)

Date Brightness Start Highest point End Pass type
(mag) Time Alt. Az. Time Alt. Az. Time Alt. Az.
27 Feb -1.0 06:07:41 10° S 06:09:46 16° SE 06:11:51 10° ESE visible
28 Feb -0.6 05:17:33 10° SE 05:17:47 10° SE 05:18:02 10° SE visible
01 Mar -1.9 05:58:37 10° SSW 06:01:26 27° SSE 06:04:17 10° E visible
02 Mar -1.4 05:07:01 10° S 05:09:22 18° SE 05:11:43 10° E visible
03 Mar -1.0 04:17:00 12° SE 04:17:19 12° SE 04:18:39 10° ESE visible
03 Mar -2.8 05:50:03 10° SW 05:53:10 43° SSE 05:56:19 10° E visible
04 Mar -2.4 04:59:34 21° SSW 05:00:59 30° SSE 05:03:56 10° E visible
05 Mar -1.6 04:09:24 20° SE 04:09:24 20° SE 04:11:24 10° E visible
05 Mar -3.5 05:42:03 13° WSW 05:44:56 63° SSE 05:48:12 10° E visible
06 Mar -3.2 04:51:48 36° SSW 04:52:40 48° SSE 04:55:51 10° E visible
07 Mar -1.9 04:01:29 27° ESE 04:01:29 27° ESE 04:03:27 10° E visible
07 Mar -3.8 05:34:08 15° W 05:36:42 79° S 05:39:59 10° E visible
